This is the latest recevied weather packets stored in our database for station/object WB3IGR. If no packets are shown the sender has not sent any weather packets the latest 1 day(s).
| Time | Temp. | Humidity | Pressure | Rain* | Wind** | Luminosity | Snow |
|---|---|---|---|---|---|---|---|
| 1778031943 | 22.22° C | 49% | 1010.9 hPa | 0 mm | 2.24 m/s, 190° | 0 W/m² | - |
| 1778031638 | 22.22° C | 49% | 1010.6 hPa | 0 mm | 2.24 m/s, 264° | 0 W/m² | - |
| 1778031337 | 22.22° C | 49% | 1010.6 hPa | 0 mm | 2.68 m/s, 170° | 0 W/m² | - |
| 1778031033 | 22.22° C | 49% | 1010.6 hPa | 0 mm | 2.24 m/s, 241° | 0 W/m² | - |
| 1778030729 | 22.22° C | 48% | 1010.6 hPa | 0 mm | 1.34 m/s, 277° | 0 W/m² | - |
| 1778030426 | 22.22° C | 48% | 1010.5 hPa | 0 mm | 1.79 m/s, 34° | 0 W/m² | - |
| 1778030128 | 22.22° C | 48% | 1010.4 hPa | 0 mm | 1.34 m/s, 229° | 0 W/m² | - |
| 1778029819 | 22.78° C | 48% | 1010.3 hPa | 0 mm | 1.34 m/s, 249° | 0 W/m² | - |
| 1778029514 | 22.78° C | 48% | 1010.2 hPa | 0 mm | 0.89 m/s, 237° | 0 W/m² | - |
| 1778029209 | 22.78° C | 48% | 1010.4 hPa | 0 mm | 1.79 m/s, 263° | 0 W/m² | - |
| 1778028907 | 22.78° C | 49% | 1010.2 hPa | 0 mm | 1.79 m/s, 263° | 0 W/m² | - |
| 1778028602 | 22.78° C | 48% | 1010 hPa | 0 mm | 0.89 m/s, 213° | 0 W/m² | - |
| 1778028300 | 22.78° C | 48% | 1009.9 hPa | 0 mm | 0.89 m/s, 305° | 0 W/m² | - |
| 1778027996 | 23.33° C | 47% | 1010.1 hPa | 0 mm | 1.79 m/s, 262° | 0 W/m² | - |
| 1778027693 | 23.33° C | 46% | 1009.8 hPa | 0 mm | 1.79 m/s, 230° | 0 W/m² | - |
| 1778027389 | 23.89° C | 44% | 1010 hPa | 0 mm | 2.24 m/s, 261° | 0 W/m² | - |
| 1778027085 | 23.89° C | 44% | 1010 hPa | 0 mm | 1.79 m/s, 216° | 0 W/m² | - |
| 1778026781 | 23.33° C | 46% | 1009.8 hPa | 0 mm | 2.24 m/s, 196° | 0 W/m² | - |
| 1778026478 | 23.33° C | 46% | 1009.8 hPa | 0 mm | 2.24 m/s, 164° | 0 W/m² | - |
| 1778026175 | 23.33° C | 48% | 1009.6 hPa | 0 mm | 1.34 m/s, 225° | 0 W/m² | - |
| 1778025873 | 23.33° C | 49% | 1009.9 hPa | 0 mm | 1.34 m/s, 196° | 0 W/m² | - |
| 1778025569 | 23.89° C | 47% | 1009.7 hPa | 0 mm | 2.24 m/s, 262° | 0 W/m² | - |
| 1778025268 | 23.89° C | 48% | 1009.7 hPa | 0 mm | 2.24 m/s, 216° | 2 W/m² | - |
| 1778024964 | 23.89° C | 48% | 1009.7 hPa | 0 mm | 3.13 m/s, 147° | 3 W/m² | - |
| 1778024662 | 23.89° C | 48% | 1009.6 hPa | 0 mm | 3.13 m/s, 249° | 6 W/m² | - |
* Rain latest hour (hover to see other rain measurements)
** Current wind speed in m/s (hover to see current wind gust speed)